GW5225 Weather Reports


time (UTC)temp
C
wind
direction
speed
KPH
gust
KPH
rain 1hr
cm
rain 24hr
cm
rain mn
cm
humidity
%
barometer
mb
20260505165201 19 300 4.8 16.1 0.00 0.03 0.03 57 970.9
20260505164702 20 257 8.0 19.3 0.00 0.03 0.03 56 970.9
20260505164205 20 327 9.7 24.1 0.00 0.03 0.03 57 970.9
20260505163703 20 221 9.7 24.1 0.00 0.03 0.03 55 970.9
20260505163203 20 308 3.2 20.9 0.00 0.03 0.03 55 970.9
20260505162702 20 136 8.0 14.5 0.00 0.03 0.03 55 971.2
20260505162202 20 283 8.0 17.7 0.00 0.03 0.03 56 970.9
20260505161702 20 253 4.8 17.7 0.00 0.03 0.03 56 970.6
20260505161202 20 213 6.4 19.3 0.00 0.03 0.03 57 970.6
20260505160702 20 207 1.6 19.3 0.00 0.03 0.03 58 970.6
20260505160202 20 201 4.8 19.3 0.00 0.03 0.03 58 970.6
20260505153200 19 228 6.4 16.1 0.00 0.03 0.03 61 970.6
20260505152659 19 340 6.4 20.9 0.00 0.03 0.03 61 970.6
20260505152200 19 306 6.4 19.3 0.00 0.03 0.03 61 970.6
20260505151700 19 84 3.2 24.1 0.00 0.03 0.03 61 970.6
20260505151159 18 220 6.4 24.1 0.00 0.03 0.03 61 970.9
20260505150158 18 266 3.2 20.9 0.00 0.03 0.03 64 970.6
20260505140155 17 213 14.5 24.1 0.00 0.03 0.03 65 970.6
20260505130152 16 221 1.6 9.7 0.03 0.03 0.03 71 970.2
20260505124652 16 190 0.0 9.7 0.03 0.03 0.03 70 970.2
20260505123651 16 230 0.0 8.0 0.03 0.03 0.03 71 969.9
20260505123151 16 339 0.0 6.4 0.03 0.03 0.03 70 970.2
20260505122650 16 185 4.8 6.4 0.03 0.03 0.03 70 969.9
20260505122150 16 29 0.0 6.4 0.03 0.03 0.03 70 969.9
20260505121650 16 278 0.0 6.4 0.03 0.03 0.03 70 969.5
20260505121150 16 330 0.0 6.4 0.03 0.03 0.03 69 969.9
20260505120149 16 315 0.0 6.4 0.00 0.00 0.00 68 970.2
20260505115148 16 228 0.0 4.8 0.00 0.00 0.00 67 969.9
20260505114648 16 333 1.6 8.0 0.00 0.00 0.00 67 969.9
20260505114148 16 24 1.6 8.0 0.00 0.00 0.00 67 969.5
20260505113647 16 273 3.2 8.0 0.00 0.00 0.00 68 969.9
20260505113148 16 265 1.6 8.0 0.00 0.00 0.00 67 969.9
20260505112647 16 225 3.2 9.7 0.00 0.00 0.00 67 969.9
20260505112147 16 219 1.6 9.7 0.00 0.00 0.00 67 969.5
20260505111646 16 237 1.6 9.7 0.00 0.00 0.00 67 969.5
20260505111146 16 215 4.8 11.3 0.00 0.00 0.00 68 969.9
20260505110646 16 231 3.2 11.3 0.00 0.00 0.00 68 969.5
20260505110146 16 335 0.0 4.8 0.00 0.00 0.00 68 969.5
20260505102144 16 232 3.2 8.0 0.00 0.00 0.00 67 969.5
20260505101643 16 333 0.0 8.0 0.00 0.00 0.00 67 969.2
20260505100643 16 277 3.2 11.3 0.00 0.00 0.00 67 969.2
20260505100143 16 327 4.8 11.3 0.00 0.00 0.00 68 969.2
20260505095642 16 250 3.2 6.4 0.00 0.00 0.00 69 969.2
20260505094642 16 205 3.2 6.4 0.00 0.00 0.00 68 968.9
20260505094142 16 337 3.2 9.7 0.00 0.00 0.00 68 969.2
20260505093141 16 283 4.8 6.4 0.00 0.00 0.00 68 968.9
20260505092640 16 318 4.8 6.4 0.00 0.00 0.00 68 968.9
20260505092140 16 206 1.6 6.4 0.00 0.00 0.00 67 968.9
20260505091640 16 247 3.2 6.4 0.00 0.00 0.00 67 968.9
20260505091139 16 212 4.8 6.4 0.00 0.00 0.00 67 968.9
20260505090640 16 0 0.0 8.0 0.00 0.00 0.00 67 968.9
20260505090139 16 257 3.2 8.0 0.00 0.00 0.00 66 968.5
20260505085639 16 289 0.0 9.7 0.00 0.00 0.00 66 968.5
20260505085138 17 216 4.8 9.7 0.00 0.00 0.00 66 968.9
20260505084638 17 344 4.8 12.9 0.00 0.00 0.00 66 968.5
20260505084138 17 236 6.4 12.9 0.00 0.00 0.00 66 968.5
20260505083641 16 204 3.2 17.7 0.00 0.00 0.00 68 968.5
20260505083137 17 258 3.2 19.3 0.00 0.00 0.00 67 968.5
20260505082637 17 309 8.0 19.3 0.00 0.00 0.00 66 968.2
20260505082137 17 319 9.7 11.3 0.00 0.00 0.00 63 968.5
20260505081637 17 319 4.8 12.9 0.00 0.00 0.00 62 968.2
20260505081137 17 175 3.2 14.5 0.00 0.00 0.00 62 968.2
20260505080130 17 223 14.5 16.1 0.00 0.00 0.00 61 968.2
20260505075130 17 208 8.0 12.9 0.00 0.00 0.00 62 967.9
20260505074630 17 217 4.8 9.7 0.00 0.00 0.00 62 967.9
20260505074129 17 125 1.6 11.3 0.00 0.00 0.00 62 967.9
20260505073629 17 214 6.4 20.9 0.00 0.00 0.00 62 967.9
20260505073130 17 233 3.2 20.9 0.00 0.00 0.00 62 967.9
20260505072630 17 129 3.2 12.9 0.00 0.00 0.00 62 967.9
20260505072130 17 264 3.2 17.7 0.00 0.00 0.00 62 967.9
20260505071130 17 240 3.2 8.0 0.00 0.00 0.00 63 967.9
20260505070629 17 334 3.2 11.3 0.00 0.00 0.00 63 967.9
20260505070130 17 326 3.2 11.3 0.00 0.00 0.00 63 967.9
20260505065630 17 220 3.2 12.9 0.00 0.00 0.00 63 967.9
20260505065130 17 72 1.6 12.9 0.00 0.00 0.00 63 967.9
20260505064130 17 204 1.6 8.0 0.00 0.00 0.00 63 967.5
20260505063630 17 299 4.8 11.3 0.00 0.00 0.00 63 968.2
20260505063130 17 216 1.6 11.3 0.00 0.00 0.00 63 967.9
20260505062634 17 212 1.6 11.3 0.00 0.00 0.00 63 967.9
20260505062130 17 98 3.2 8.0 0.00 0.00 0.00 63 968.2
20260505061630 17 328 0.0 14.5 0.00 0.00 0.00 63 968.2
20260505061129 17 221 9.7 14.5 0.00 0.00 0.00 63 968.2
20260505060629 17 320 0.0 14.5 0.00 0.00 0.00 62 968.2
20260505060129 17 112 1.6 14.5 0.00 0.00 0.00 62 968.2
20260505055129 18 154 6.4 11.3 0.00 0.00 0.00 61 968.2
20260505054628 18 267 0.0 11.3 0.00 0.00 0.00 61 968.5
20260505054128 18 275 4.8 11.3 0.00 0.00 0.00 61 968.5
20260505053628 18 275 1.6 9.7 0.00 0.00 0.00 62 968.5
20260505053128 18 207 4.8 11.3 0.00 0.00 0.00 62 968.5
20260505052628 18 193 3.2 14.5 0.00 0.00 0.00 62 968.9
20260505052127 18 199 3.2 14.5 0.00 0.00 0.00 62 968.5
20260505051627 18 264 0.0 9.7 0.00 0.00 0.00 61 968.9
20260505051128 18 309 1.6 19.3 0.00 0.00 0.00 61 968.9
20260505050126 18 38 1.6 11.3 0.00 0.00 0.00 61 968.9
20260505040624 18 348 0.0 12.9 0.00 0.00 0.00 62 968.9
20260505040123 18 125 3.2 17.7 0.00 0.00 0.00 62 968.9
20260505034122 17 307 0.0 11.3 0.00 0.00 0.00 62 968.9
20260505033122 17 41 6.4 11.3 0.00 0.00 0.00 62 968.9
20260505032621 17 98 3.2 11.3 0.00 0.00 0.00 62 968.9
20260505032121 17 318 3.2 9.7 0.00 0.00 0.00 62 968.9
20260505031621 17 253 3.2 9.7 0.00 0.00 0.00 62 968.9
20260505031120 17 230 1.6 6.4 0.00 0.00 0.00 62 968.9
20260505030620 17 51 3.2 8.0 0.00 0.00 0.00 62 969.2
20260505030120 17 248 0.0 8.0 0.00 0.00 0.00 61 968.9
20260505025620 17 257 0.0 9.7 0.00 0.00 0.00 61 969.2
20260505025120 17 212 1.6 9.7 0.00 0.00 0.00 61 969.2
20260505024620 17 48 0.0 6.4 0.00 0.00 0.00 61 968.9
20260505024119 17 186 3.2 9.7 0.00 0.00 0.00 61 968.9
20260505023618 17 249 3.2 9.7 0.00 0.00 0.00 61 968.9
20260505023118 17 75 0.0 11.3 0.00 0.00 0.00 61 969.2
20260505022618 17 248 3.2 11.3 0.00 0.00 0.00 60 969.2
20260505022122 17 48 1.6 8.0 0.00 0.00 0.00 60 969.2
20260505021618 17 251 3.2 6.4 0.00 0.00 0.00 59 969.2
20260505021118 18 131 4.8 6.4 0.00 0.00 0.00 59 969.2
20260505020617 18 207 4.8 14.5 0.00 0.00 0.00 59 969.2
20260505020117 18 201 3.2 14.5 0.00 0.00 0.00 58 969.2
20260505015616 18 317 3.2 11.3 0.00 0.00 0.00 58 969.2
20260505015117 18 293 1.6 11.3 0.00 0.00 0.00 58 969.2
20260505014616 18 218 0.0 9.7 0.00 0.00 0.00 58 969.2
20260505014116 18 306 1.6 11.3 0.00 0.00 0.00 57 969.2
20260505013616 18 244 0.0 11.3 0.00 0.00 0.00 57 969.2
20260505012615 18 17 0.0 17.7 0.00 0.00 0.00 56 968.9
20260505012115 18 234 4.8 11.3 0.00 0.00 0.00 55 969.2
20260505011615 18 194 3.2 12.9 0.00 0.00 0.00 55 969.2
20260505011114 19 223 6.4 19.3 0.00 0.00 0.00 55 968.9
20260505010614 19 217 4.8 19.3 0.00 0.00 0.00 54 968.9
20260505010113 19 349 6.4 16.1 0.00 0.00 0.00 54 968.9
20260505005113 19 17 0.0 19.3 0.00 0.00 0.00 54 968.9
20260505004613 19 193 3.2 16.1 0.00 0.00 0.00 53 968.9
20260505004113 19 227 4.8 16.1 0.00 0.00 0.00 53 968.9
20260505003613 20 309 8.0 19.3 0.00 0.00 0.00 53 968.5
20260505002615 20 172 3.2 14.5 0.00 0.00 0.00 52 968.5
20260505002111 20 238 3.2 12.9 0.00 0.00 0.00 52 968.5
20260505001612 20 221 6.4 12.9 0.00 0.00 0.00 52 968.5
20260505000110 20 174 1.6 16.1 0.00 0.00 0.00 51 968.2
20260504235611 20 220 3.2 16.1 0.00 0.00 0.00 50 968.2
20260504235110 21 222 3.2 14.5 0.00 0.00 0.00 49 967.9
20260504234109 21 172 0.0 14.5 0.00 0.00 0.00 49 967.9
20260504233609 21 350 3.2 14.5 0.00 0.00 0.00 49 967.9
20260504233109 21 208 4.8 12.9 0.00 0.00 0.00 48 967.9
20260504232608 21 248 3.2 17.7 0.00 0.00 0.00 48 967.9
20260504231108 21 316 4.8 19.3 0.00 0.00 0.00 47 967.9
20260504230608 21 224 4.8 19.3 0.00 0.00 0.00 46 968.2
20260504225607 22 248 4.8 20.9 0.00 0.00 0.00 47 968.2
20260504224607 21 213 20.9 22.5 0.00 0.00 0.00 48 968.5
20260504223605 21 211 8.0 27.4 0.00 0.00 0.00 48 968.2
20260504223104 21 216 8.0 17.7 0.00 0.00 0.00 48 968.5
20260504222105 21 314 6.4 20.9 0.00 0.00 0.00 48 968.5
20260504221604 21 280 4.8 20.9 0.00 0.00 0.00 48 968.5
20260504221104 22 142 6.4 14.5 0.00 0.00 0.00 48 968.5
20260504220604 22 288 6.4 17.7 0.00 0.00 0.00 47 968.5
20260504215603 21 194 3.2 17.7 0.00 0.00 0.00 48 968.5
20260504215102 21 233 9.7 20.9 0.00 0.00 0.00 48 968.5
20260504214602 22 112 3.2 20.9 0.00 0.00 0.00 46 968.5
20260504214102 22 190 3.2 16.1 0.00 0.00 0.00 47 968.5
20260504213602 22 246 4.8 14.5 0.00 0.00 0.00 47 968.5
20260504212603 21 205 4.8 19.3 0.00 0.00 0.00 48 968.5
20260504211102 21 225 3.2 19.3 0.00 0.00 0.00 48 968.9
20260504210602 21 348 8.0 20.9 0.00 0.00 0.00 48 968.5
20260504210101 21 230 11.3 22.5 0.00 0.00 0.00 48 968.9
20260504205601 21 285 1.6 22.5 0.00 0.00 0.00 49 968.9
20260504205100 21 227 1.6 17.7 0.00 0.00 0.00 48 968.9
20260504204100 21 332 1.6 30.6 0.00 0.00 0.00 48 968.9
20260504203603 21 243 6.4 30.6 0.00 0.00 0.00 46 968.9
20260504203100 21 263 3.2 20.9 0.00 0.00 0.00 47 968.9
20260504202559 22 207 6.4 20.9 0.00 0.00 0.00 45 968.9
20260504202059 22 247 8.0 19.3 0.00 0.00 0.00 45 968.9
20260504201559 22 290 3.2 19.3 0.00 0.00 0.00 46 968.9
20260504200558 21 59 3.2 17.7 0.00 0.00 0.00 45 969.2
20260504200058 22 212 8.0 19.3 0.00 0.00 0.00 45 969.2
20260504195558 22 239 6.4 19.3 0.00 0.00 0.00 45 969.2
20260504195057 21 183 0.0 16.1 0.00 0.00 0.00 45 969.2
20260504194557 22 350 6.4 14.5 0.00 0.00 0.00 45 968.9
20260504194057 22 220 3.2 14.5 0.00 0.00 0.00 47 969.2
20260504192556 21 218 9.7 17.7 0.00 0.00 0.00 46 969.5
20260504192055 22 297 6.4 17.7 0.00 0.00 0.00 46 969.5
20260504191556 21 6 4.8 14.5 0.00 0.00 0.00 46 969.9
20260504191055 21 273 8.0 17.7 0.00 0.00 0.00 48 969.9
20260504190555 21 310 4.8 17.7 0.00 0.00 0.00 47 969.5
20260504190054 21 338 1.6 14.5 0.00 0.00 0.00 47 969.9
20260504185554 21 69 4.8 24.1 0.00 0.00 0.00 47 969.9
20260504185054 20 187 6.4 24.1 0.00 0.00 0.00 48 969.9
20260504184554 20 204 9.7 24.1 0.00 0.00 0.00 47 970.2
20260504184057 21 198 3.2 20.9 0.00 0.00 0.00 47 970.2
20260504183053 21 242 6.4 24.1 0.00 0.00 0.00 47 970.2
20260504182053 20 198 3.2 17.7 0.00 0.00 0.00 48 970.2
20260504181552 20 169 8.0 17.7 0.00 0.00 0.00 46 969.9
20260504181052 20 233 8.0 17.7 0.00 0.00 0.00 47 970.2
20260504180551 20 308 6.4 12.9 0.00 0.00 0.00 48 970.2
20260504180051 20 244 4.8 16.1 0.00 0.00 0.00 47 970.2
20260504175551 20 136 6.4 16.1 0.00 0.00 0.00 47 970.6
20260504175051 20 213 11.3 22.5 0.00 0.00 0.00 48 970.6
20260504174551 20 249 9.7 22.5 0.00 0.00 0.00 46 970.6
20260504174051 20 247 6.4 20.9 0.00 0.00 0.00 45 970.6
20260504173050 19 166 3.2 17.7 0.00 0.00 0.00 47 970.6
20260504172550 19 199 12.9 22.5 0.00 0.00 0.00 46 970.9
20260504172049 20 341 11.3 22.5 0.00 0.00 0.00 45 970.6
20260504171549 19 16 3.2 19.3 0.00 0.00 0.00 48 970.6
20260504171049 19 152 3.2 16.1 0.00 0.00 0.00 46 970.6
20260504170548 18 198 3.2 19.3 0.00 0.00 0.00 47 970.9